sat.trackr.live / text

‹ back to catalog

STARLINK-35289

NORAD 65809 · 2025-218U

PAYLOAD ACTIVE UNKNOWN

§ Identity

Operator
Country
US
Launch date
2025-09-26
Launch site
AFWTR
Launch vehicle
Mass (kg)
RCS (m²)

Purposes: comms

External: N2YO · Heavens-Above · Gunter

§ Orbital elements

Epoch: 2026-09-20T12:04:06.092256Z

Period
93.91 min
Inclination
97.2849°
Eccentricity
0.0001693
Mean motion
15.33448554 rev/d
Perigee alt
464.4 km
Apogee alt
466.7 km
Semi-major
6,843.7 km
B*
6.0578e-4
RAAN
120.8722°
Arg perigee
89.9993°
Mean anomaly
270.1444°
Rev number
5,433

§ Raw data

STARLINK-352891 65809U 25218U   26263.50284829  .00019535  00000+0  60578-3 0  99942 65809  97.2849 120.8722 0001693  89.9993 270.1444 15.33448554 54336

JSON: /api/v1/satellites/65809 · /tle

For live sub-satellite position, see the globe view (requires WebGL).

§ Visibility from observer

Set your observer location to see the next 7 days of passes ≥ 10°. The values pass through the URL so the page stays shareable.

No JS? Fill the form by hand. The geolocation button needs JavaScript.